SCP
0 0 0 0 0 0 0 0 0 0 0 0 0 0 0 0 0 0 0 0 1 1 1 1 0 0 0 0 0 0 0 0 0 0 0 0 0 0 0 0 0 0 0
0 0 0 0 0 0 0 0 0 0 0 0 0 0 0 0 0 0 0 0 1 1 1 1 0 0 0 0 0 0 0 0 0 0 0 0 0 0 0 0 0 0 0
0 0 0 0 0 0 0 0 0 0 0 0 0 0 0 0 0 0 0 0 0 1 1 1 0 0 0 0 0 0 0 0 0 0 0 0 0 0 0 0 0 0 0
0 0 0 0 0 0 0 0 0 0 0 0 0 0 0 0 0 0 0 0 1 1 1 1 0 0 0 0 0 0 0 0 0 0 0 0 0 0 0 0 0 0 0
0 0 0 0 0 0 0 0 0 0 0 0 0 0 0 0 0 0 0 0 0 1 1 0 0 0 0 0 0 0 0 0 0 0 0 0 0 0 0 0 0 0 0
0 0 0 0 0 0 0 0 0 0 0 0 0 0 1 0 0 0 0 0 0 1 1 0 0 0 0 0 0 0 0 0 0 0 0 0 0 0 0 0 0 0 0
0 0 0 0 0 0 0 0 0 0 0 0 0 0 1 0 0 0 0 0 0 1 0 0 0 0 0 0 0 0 0 0 0 0 0 0 0 0 0 0 0 0 0
0 0 0 0 0 0 0 0 0 0 0 0 0 0 0 0 0 0 0 0 0 0 0 0 0 0 0 0 0 0 0 0 0 0 0 0 0 0 0 0 0 0 0
0 0 0 0 0 0 0 0 0 0 0 0 1 0 0 0 0 0 0 0 0 0 0 0 0 0 0 0 0 0 0 0 0 0 0 0 0 0 0 0 0 0 0
0 0 0 0 0 0 1 0 0 0 0 0 1 0 1 1 0 0 0 0 0 0 0 0 0 0 0 0 0 0 0 0 0 0 0 0 0 0 0 0 0 0 0
0 0 0 1 1 0 1 1 0 0 0 0 0 0 0 0 0 0 0 0 0 0 0 0 0 0 0 0 0 0 0 0 0 0 0 0 0 0 0 0 0 0 0
0 0 0 1 1 1 1 1 1 0 1 1 1 1 0 0 0 0 0 0 0 0 0 0 0 0 0 0 0 0 0 0 0 0 0 0 0 0 0 0 0 0 0
-0 -0 0 0 1 1 1 2 1 1 1 1 1 0 0 0 0 0 0 0 0 0 0 0 0 0 0 0 0 0 0 0 0 0 0 0 0 0 0 0 0 0 0
1 1 0 1 1 1 1 1 1 1 1 1 1 1 0 0 0 0 0 0 0 0 0 0 0 0 0 0 0 0 0 0 0 0 0 0 0 0 0 0 0 0 0
1 1 1 1 1 1 1 1 1 1 1 1 1 1 1 0 0 0 0 0 0 0 0 0 0 0 0 0 0 0 0 0 0 0 0 0 0 0 0 0 0 0 0
1 1 1 1 1 1 0 1 1 1 1 1 1 1 1 0 1 0 0 0 0 0 0 0 0 0 0 0 0 0 0 0 0 0 0 0 0 0 0 0 0 0 0
1 1 1 1 1 1 1 1 1 1 1 1 1 1 1 1 0 0 0 0 0 0 0 0 0 0 0 0 0 0 0 0 0 0 0 0 0 0 0 0 0 0 0
1 1 1 1 1 1 1 1 1 1 1 1 1 1 1 0 0 0 0 0 0 0 0 0 0 0 0 0 0 0 0 0 0 0 0 0 0 0 0 0 0 -0 -0
1 1 1 1 1 1 1 1 1 1 1 1 1 0 0 0 0 0 0 0 0 0 0 0 0 0 0 0 0 0 0 0 0 0 0 0 0 0 0 0 -0 -0 -0
3 3 2 2 2 2 1 1 1 1 1 1 0 0 0 0 0 0 0 0 0 0 0 0 0 0 0 0 0 0 0 0 0 0 0 0 0 0 0 -0 0 -0 -0
4 4 4 3 3 3 3 2 2 1 2 1 0 0 0 0 0 0 0 0 0 0 0 0 0 0 0 0 0 0 0 0 0 0 0 0 0 0 0 0 0 0 -0
3 3 3 3 5 5 3 2 2 2 1 0 0 0 0 0 0 0 0 0 0 0 0 0 0 0 0 0 0 0 0 0 0 0 0 0 0 0 0 0 0 0 0
5 5 6 6 4 4 1 0 0 2 0 0 0 0 0 0 0 0 0 0 0 0 0 0 0 0 0 0 0 0 0 0 0 0 0 0 0 0 0 0 0 0 -0
3 4 5 5 3 4 0 0 0 1 0 0 0 0 0 0 0 0 0 0 0 0 0 0 0 0 0 0 0 0 0 0 0 0 0 0 0 0 0 0 0 0 0
3 3 4 4 3 3 0 0 0 0 0 0 0 0 0 0 0 0 0 0 0 0 0 0 0 0 0 0 0 0 0 0 0 0 0 0 0 0 0 0 0 0 0
1 2 2 3 2 2 0 0 0 0 0 0 0 0 0 0 0 0 0 0 0 0 0 0 0 0 0 0 0 0 0 0 0 0 0 0 0 0 0 0 0 0 0
Wind_Speed_500mb
70 69 66 65 62 58 51 45 41 36 30 29 30 28 24 14 11 7 1 4 11 15 18 20 17 17 25 32 39 44 50 55 48 35 26 19 18 22 21 20 17 15 14
68 67 67 67 63 56 50 45 41 37 32 31 30 27 24 13 8 4 3 7 13 16 17 17 13 19 26 33 39 43 47 52 48 37 27 17 11 13 16 18 19 17 17
61 63 63 64 60 53 50 45 41 39 34 32 30 25 23 15 11 5 3 9 13 15 14 14 16 22 27 33 39 46 52 58 50 37 29 21 17 15 20 23 24 20 22
60 58 57 57 54 53 50 47 44 39 34 32 27 22 19 16 12 10 7 8 10 9 9 13 15 22 27 31 39 46 52 59 48 36 29 26 24 24 24 24 25 24 24
65 60 54 53 53 54 52 48 45 39 33 29 23 19 15 13 11 9 9 10 8 5 7 12 15 21 24 30 39 44 51 54 42 36 32 28 28 28 27 28 28 26 25
71 64 58 53 53 57 54 50 46 39 34 31 21 19 15 13 10 10 10 10 6 9 10 12 14 19 23 28 38 44 51 51 39 35 32 32 32 33 34 30 29 28 26
77 70 64 57 56 57 54 50 46 42 38 35 24 17 15 12 11 13 13 14 11 12 14 13 14 15 22 27 33 40 46 48 38 33 35 38 38 35 32 30 28 29 32
84 77 72 65 57 56 55 54 51 46 42 38 21 17 12 11 17 20 18 17 16 16 15 15 15 15 18 23 30 35 42 43 35 36 36 35 32 29 31 33 33 31 31
87 84 79 68 59 58 59 57 51 49 47 42 35 17 11 12 16 24 23 21 20 18 19 19 15 17 19 20 25 32 39 37 32 33 35 30 27 30 32 32 34 34 31
88 87 82 73 67 62 61 58 54 52 48 42 40 39 26 12 11 10 21 22 24 23 23 22 16 18 20 19 21 27 34 28 26 29 30 27 29 32 33 37 35 33 33
83 88 86 79 73 68 66 63 62 60 55 43 39 44 41 31 26 17 11 21 28 28 25 22 17 19 20 18 19 27 29 23 21 25 24 27 30 35 40 38 39 38 36
86 87 87 83 78 73 71 68 65 63 58 52 40 43 40 30 29 30 20 18 19 25 24 20 17 17 17 16 18 23 23 18 17 21 21 26 30 35 38 41 40 38 37
88 89 86 86 81 76 73 69 68 65 63 54 48 46 42 34 32 27 27 22 21 26 24 21 15 15 14 13 16 20 19 15 14 16 17 22 28 31 38 40 41 39 36
74 76 83 74 70 69 69 71 69 65 62 59 53 50 45 43 35 33 36 33 25 22 24 19 15 16 14 12 15 16 16 12 9 12 13 20 25 30 34 38 40 42 40
71 70 70 66 65 63 60 63 71 67 63 58 56 52 48 45 40 37 36 35 28 19 20 23 16 17 15 11 12 13 16 13 8 9 8 15 22 25 29 34 40 42 42
63 57 59 62 63 59 57 56 61 63 62 62 60 57 51 50 44 40 37 33 32 30 23 21 19 13 13 12 11 12 16 11 6 4 8 14 21 21 27 31 37 39 40
64 58 54 51 60 62 61 60 58 62 59 58 60 59 59 49 43 39 35 32 30 29 27 23 20 13 13 14 11 11 14 5 3 2 2 11 18 19 25 27 34 40 42
71 64 58 56 52 55 58 59 59 61 61 63 62 58 59 48 40 37 35 31 27 24 24 19 19 16 14 15 11 10 7 2 5 5 3 10 13 16 22 27 35 38 40
74 72 64 58 54 51 45 44 48 55 63 69 68 63 57 47 47 50 42 40 36 30 25 15 15 11 19 16 13 9 4 7 5 3 5 9 12 15 19 27 34 39 41
72 73 67 61 56 51 43 42 46 50 54 61 67 68 70 72 68 68 56 50 42 36 26 17 4 20 22 19 16 10 12 13 10 6 5 9 11 16 21 26 33 41 46
70 67 63 63 56 55 49 50 51 52 54 55 60 63 80 75 71 67 63 59 39 29 20 9 15 31 22 22 21 16 17 15 14 8 6 7 7 9 18 24 31 39 43
65 66 67 65 66 63 59 52 48 52 58 52 64 73 80 75 67 59 59 50 35 19 11 2 26 30 23 26 21 19 23 21 12 10 5 4 5 5 10 19 31 35 38
66 70 68 70 69 69 63 56 52 52 52 57 61 76 89 80 68 65 50 35 25 18 25 25 35 29 27 24 23 24 25 23 13 12 5 5 5 2 4 18 30 33 32
67 70 71 71 70 70 64 61 55 52 49 52 78 93 92 76 77 68 51 40 38 30 26 35 32 28 27 25 24 20 21 25 20 16 11 7 5 8 1 10 25 35 35
62 70 68 70 71 70 68 61 52 56 60 79 87 88 83 83 78 60 48 35 42 41 39 35 29 25 25 27 25 22 24 23 15 8 8 9 5 10 5 6 17 30 30
51 65 69 70 64 66 64 61 53 69 87 81 83 75 70 77 74 60 55 50 53 45 40 33 29 30 28 26 23 25 24 20 16 8 8 7 4 11 4 4 12 27 27
Wind_Direction_500mb
209 210 208 210 210 212 213 216 219 220 219 218 223 224 229 246 264 271 349 350 314 316 321 341 343 345 347 351 357 360 1 359 358 4 9 26 13 354 355 350 349 353 347
213 214 214 215 214 215 217 219 221 222 222 221 225 228 230 238 221 214 281 319 318 318 328 343 343 341 349 353 358 359 358 359 1 6 9 10 18 5 6 5 7 1 341
216 219 218 220 219 215 218 220 222 224 223 223 228 228 222 223 230 250 262 312 309 317 329 337 347 340 352 352 358 359 359 1 4 8 10 7 2 347 344 349 336 329 335
220 220 221 222 220 218 220 224 224 224 222 226 230 221 225 222 231 257 252 261 277 308 316 336 340 340 349 352 359 356 359 2 5 9 10 9 2 357 356 348 347 344 334
221 222 221 222 219 220 223 224 224 223 221 222 215 207 223 218 229 235 227 257 282 275 303 330 330 337 345 349 357 353 360 1 8 13 15 15 14 6 2 356 347 341 333
223 222 222 221 218 219 221 222 223 221 217 213 205 212 216 212 226 228 235 256 269 277 288 305 322 330 341 345 352 352 357 0 10 21 21 25 21 16 13 1 352 346 342
225 224 225 222 219 218 220 222 222 221 217 207 203 198 200 208 219 224 232 253 262 267 278 286 304 317 334 340 347 351 355 357 3 9 15 20 18 14 7 1 356 0 358
226 224 226 224 221 220 219 221 224 218 214 207 192 179 179 202 219 224 231 249 258 267 265 278 294 301 320 332 339 350 353 355 358 5 9 14 11 6 2 356 353 354 354
226 225 226 226 223 221 221 221 221 213 208 207 203 188 178 213 196 225 231 247 259 260 261 275 283 290 305 323 333 347 351 354 0 1 0 3 8 10 3 356 356 352 352
222 225 226 226 225 222 220 219 218 212 211 214 215 214 203 187 182 187 231 242 255 259 265 268 273 285 297 312 326 345 351 352 0 2 5 12 19 19 18 17 15 10 14
222 225 225 225 226 225 223 220 218 215 218 218 217 218 215 222 227 224 224 242 254 258 259 258 266 281 288 311 329 344 352 352 1 6 10 17 21 22 23 23 21 16 14
225 222 225 226 226 226 225 221 221 221 222 224 224 222 224 223 231 241 236 239 231 250 252 250 258 274 285 304 328 341 353 355 356 11 6 12 14 21 26 24 21 17 12
228 220 222 224 223 225 226 222 221 223 224 225 225 225 229 230 245 255 246 234 225 241 244 244 246 262 277 297 326 344 349 354 356 9 4 1 6 13 24 21 18 18 18
224 224 225 225 224 224 223 221 221 223 226 228 227 229 235 238 243 257 252 248 231 223 237 237 239 259 272 294 323 337 344 356 3 0 359 353 357 7 15 15 16 15 21
226 227 226 223 224 223 219 219 218 221 224 228 230 231 232 233 239 247 246 246 232 214 202 224 229 254 257 273 310 322 338 1 359 350 353 343 348 0 7 10 14 16 23
230 230 231 227 228 228 222 221 221 223 225 229 234 231 230 233 235 240 242 238 238 235 208 204 221 239 243 257 296 311 332 349 1 4 344 340 340 359 1 4 11 14 15
234 231 230 232 232 231 230 228 227 230 229 230 235 233 230 233 230 233 236 235 236 230 232 210 214 213 222 242 273 297 335 1 22 338 294 337 345 353 352 359 11 13 12
234 234 231 228 230 231 233 233 232 236 233 233 234 231 226 224 231 231 231 233 230 232 229 225 207 198 209 231 248 287 332 137 123 110 333 341 354 341 348 356 360 9 9
237 237 236 229 233 231 231 230 231 237 238 233 230 223 212 218 228 228 220 214 215 208 217 217 219 195 201 214 229 263 231 183 169 185 322 337 340 332 336 349 355 -0 7
233 235 236 236 234 229 229 228 230 236 239 237 232 220 212 204 206 217 216 215 206 199 189 186 194 217 199 205 215 217 203 188 200 228 272 318 325 331 335 345 353 360 3
227 230 231 232 227 226 223 225 231 237 238 235 228 223 211 216 210 212 207 194 191 199 175 157 197 207 204 207 208 208 175 187 214 216 246 301 323 347 346 350 358 -0 1
217 217 222 222 224 221 225 229 234 237 242 224 223 216 215 208 205 197 183 176 159 184 123 335 228 223 211 210 208 202 186 181 193 221 199 267 311 343 355 349 355 356 4
220 216 214 218 220 218 225 231 232 232 236 227 225 210 202 197 187 175 170 161 161 179 176 247 236 226 215 205 213 197 194 192 193 227 233 240 291 178 17 343 353 350 354
221 220 219 220 217 219 223 230 232 232 234 233 227 217 202 195 188 189 189 183 186 193 221 237 233 216 207 208 191 178 186 199 222 238 224 215 291 194 290 350 3 358 359
218 225 220 217 218 221 222 228 229 230 220 213 212 209 202 198 190 185 182 193 193 199 222 215 214 207 200 183 174 168 174 163 169 180 222 181 211 186 169 5 358 2 9
220 226 221 222 226 224 224 226 218 210 207 206 206 196 205 210 199 197 203 214 198 210 213 206 188 176 171 173 170 172 175 169 169 148 216 152 160 177 221 281 3 1 15
Wind_Speed_850mb
70 69 66 65 62 58 51 45 41 36 30 29 30 28 24 14 11 7 1 4 11 15 18 20 17 17 25 32 39 44 50 55 48 35 26 19 18 22 21 20 17 15 14
68 67 67 67 63 56 50 45 41 37 32 31 30 27 24 13 8 4 3 7 13 16 17 17 13 19 26 33 39 43 47 52 48 37 27 17 11 13 16 18 19 17 17
61 63 63 64 60 53 50 45 41 39 34 32 30 25 23 15 11 5 3 9 13 15 14 14 16 22 27 33 39 46 52 58 50 37 29 21 17 15 20 23 24 20 22
60 58 57 57 54 53 50 47 44 39 34 32 27 22 19 16 12 10 7 8 10 9 9 13 15 22 27 31 39 46 52 59 48 36 29 26 24 24 24 24 25 24 24
65 60 54 53 53 54 52 48 45 39 33 29 23 19 15 13 11 9 9 10 8 5 7 12 15 21 24 30 39 44 51 54 42 36 32 28 28 28 27 28 28 26 25
71 64 58 53 53 57 54 50 46 39 34 31 21 19 15 13 10 10 10 10 6 9 10 12 14 19 23 28 38 44 51 51 39 35 32 32 32 33 34 30 29 28 26
77 70 64 57 56 57 54 50 46 42 38 35 24 17 15 12 11 13 13 14 11 12 14 13 14 15 22 27 33 40 46 48 38 33 35 38 38 35 32 30 28 29 32
84 77 72 65 57 56 55 54 51 46 42 38 21 17 12 11 17 20 18 17 16 16 15 15 15 15 18 23 30 35 42 43 35 36 36 35 32 29 31 33 33 31 31
87 84 79 68 59 58 59 57 51 49 47 42 35 17 11 12 16 24 23 21 20 18 19 19 15 17 19 20 25 32 39 37 32 33 35 30 27 30 32 32 34 34 31
88 87 82 73 67 62 61 58 54 52 48 42 40 39 26 12 11 10 21 22 24 23 23 22 16 18 20 19 21 27 34 28 26 29 30 27 29 32 33 37 35 33 33
83 88 86 79 73 68 66 63 62 60 55 43 39 44 41 31 26 17 11 21 28 28 25 22 17 19 20 18 19 27 29 23 21 25 24 27 30 35 40 38 39 38 36
86 87 87 83 78 73 71 68 65 63 58 52 40 43 40 30 29 30 20 18 19 25 24 20 17 17 17 16 18 23 23 18 17 21 21 26 30 35 38 41 40 38 37
88 89 86 86 81 76 73 69 68 65 63 54 48 46 42 34 32 27 27 22 21 26 24 21 15 15 14 13 16 20 19 15 14 16 17 22 28 31 38 40 41 39 36
74 76 83 74 70 69 69 71 69 65 62 59 53 50 45 43 35 33 36 33 25 22 24 19 15 16 14 12 15 16 16 12 9 12 13 20 25 30 34 38 40 42 40
71 70 70 66 65 63 60 63 71 67 63 58 56 52 48 45 40 37 36 35 28 19 20 23 16 17 15 11 12 13 16 13 8 9 8 15 22 25 29 34 40 42 42
63 57 59 62 63 59 57 56 61 63 62 62 60 57 51 50 44 40 37 33 32 30 23 21 19 13 13 12 11 12 16 11 6 4 8 14 21 21 27 31 37 39 40
64 58 54 51 60 62 61 60 58 62 59 58 60 59 59 49 43 39 35 32 30 29 27 23 20 13 13 14 11 11 14 5 3 2 2 11 18 19 25 27 34 40 42
71 64 58 56 52 55 58 59 59 61 61 63 62 58 59 48 40 37 35 31 27 24 24 19 19 16 14 15 11 10 7 2 5 5 3 10 13 16 22 27 35 38 40
74 72 64 58 54 51 45 44 48 55 63 69 68 63 57 47 47 50 42 40 36 30 25 15 15 11 19 16 13 9 4 7 5 3 5 9 12 15 19 27 34 39 41
72 73 67 61 56 51 43 42 46 50 54 61 67 68 70 72 68 68 56 50 42 36 26 17 4 20 22 19 16 10 12 13 10 6 5 9 11 16 21 26 33 41 46
70 67 63 63 56 55 49 50 51 52 54 55 60 63 80 75 71 67 63 59 39 29 20 9 15 31 22 22 21 16 17 15 14 8 6 7 7 9 18 24 31 39 43
65 66 67 65 66 63 59 52 48 52 58 52 64 73 80 75 67 59 59 50 35 19 11 2 26 30 23 26 21 19 23 21 12 10 5 4 5 5 10 19 31 35 38
66 70 68 70 69 69 63 56 52 52 52 57 61 76 89 80 68 65 50 35 25 18 25 25 35 29 27 24 23 24 25 23 13 12 5 5 5 2 4 18 30 33 32
67 70 71 71 70 70 64 61 55 52 49 52 78 93 92 76 77 68 51 40 38 30 26 35 32 28 27 25 24 20 21 25 20 16 11 7 5 8 1 10 25 35 35
62 70 68 70 71 70 68 61 52 56 60 79 87 88 83 83 78 60 48 35 42 41 39 35 29 25 25 27 25 22 24 23 15 8 8 9 5 10 5 6 17 30 30
51 65 69 70 64 66 64 61 53 69 87 81 83 75 70 77 74 60 55 50 53 45 40 33 29 30 28 26 23 25 24 20 16 8 8 7 4 11 4 4 12 27 27
Wind_Direction_850mb
209 210 208 210 210 212 213 216 219 220 219 218 223 224 229 246 264 271 349 350 314 316 321 341 343 345 347 351 357 360 1 359 358 4 9 26 13 354 355 350 349 353 347
213 214 214 215 214 215 217 219 221 222 222 221 225 228 230 238 221 214 281 319 318 318 328 343 343 341 349 353 358 359 358 359 1 6 9 10 18 5 6 5 7 1 341
216 219 218 220 219 215 218 220 222 224 223 223 228 228 222 223 230 250 262 312 309 317 329 337 347 340 352 352 358 359 359 1 4 8 10 7 2 347 344 349 336 329 335
220 220 221 222 220 218 220 224 224 224 222 226 230 221 225 222 231 257 252 261 277 308 316 336 340 340 349 352 359 356 359 2 5 9 10 9 2 357 356 348 347 344 334
221 222 221 222 219 220 223 224 224 223 221 222 215 207 223 218 229 235 227 257 282 275 303 330 330 337 345 349 357 353 360 1 8 13 15 15 14 6 2 356 347 341 333
223 222 222 221 218 219 221 222 223 221 217 213 205 212 216 212 226 228 235 256 269 277 288 305 322 330 341 345 352 352 357 0 10 21 21 25 21 16 13 1 352 346 342
225 224 225 222 219 218 220 222 222 221 217 207 203 198 200 208 219 224 232 253 262 267 278 286 304 317 334 340 347 351 355 357 3 9 15 20 18 14 7 1 356 0 358
226 224 226 224 221 220 219 221 224 218 214 207 192 179 179 202 219 224 231 249 258 267 265 278 294 301 320 332 339 350 353 355 358 5 9 14 11 6 2 356 353 354 354
226 225 226 226 223 221 221 221 221 213 208 207 203 188 178 213 196 225 231 247 259 260 261 275 283 290 305 323 333 347 351 354 0 1 0 3 8 10 3 356 356 352 352
222 225 226 226 225 222 220 219 218 212 211 214 215 214 203 187 182 187 231 242 255 259 265 268 273 285 297 312 326 345 351 352 0 2 5 12 19 19 18 17 15 10 14
222 225 225 225 226 225 223 220 218 215 218 218 217 218 215 222 227 224 224 242 254 258 259 258 266 281 288 311 329 344 352 352 1 6 10 17 21 22 23 23 21 16 14
225 222 225 226 226 226 225 221 221 221 222 224 224 222 224 223 231 241 236 239 231 250 252 250 258 274 285 304 328 341 353 355 356 11 6 12 14 21 26 24 21 17 12
228 220 222 224 223 225 226 222 221 223 224 225 225 225 229 230 245 255 246 234 225 241 244 244 246 262 277 297 326 344 349 354 356 9 4 1 6 13 24 21 18 18 18
224 224 225 225 224 224 223 221 221 223 226 228 227 229 235 238 243 257 252 248 231 223 237 237 239 259 272 294 323 337 344 356 3 0 359 353 357 7 15 15 16 15 21
226 227 226 223 224 223 219 219 218 221 224 228 230 231 232 233 239 247 246 246 232 214 202 224 229 254 257 273 310 322 338 1 359 350 353 343 348 0 7 10 14 16 23
230 230 231 227 228 228 222 221 221 223 225 229 234 231 230 233 235 240 242 238 238 235 208 204 221 239 243 257 296 311 332 349 1 4 344 340 340 359 1 4 11 14 15
234 231 230 232 232 231 230 228 227 230 229 230 235 233 230 233 230 233 236 235 236 230 232 210 214 213 222 242 273 297 335 1 22 338 294 337 345 353 352 359 11 13 12
234 234 231 228 230 231 233 233 232 236 233 233 234 231 226 224 231 231 231 233 230 232 229 225 207 198 209 231 248 287 332 137 123 110 333 341 354 341 348 356 360 9 9
237 237 236 229 233 231 231 230 231 237 238 233 230 223 212 218 228 228 220 214 215 208 217 217 219 195 201 214 229 263 231 183 169 185 322 337 340 332 336 349 355 -0 7
233 235 236 236 234 229 229 228 230 236 239 237 232 220 212 204 206 217 216 215 206 199 189 186 194 217 199 205 215 217 203 188 200 228 272 318 325 331 335 345 353 360 3
227 230 231 232 227 226 223 225 231 237 238 235 228 223 211 216 210 212 207 194 191 199 175 157 197 207 204 207 208 208 175 187 214 216 246 301 323 347 346 350 358 -0 1
217 217 222 222 224 221 225 229 234 237 242 224 223 216 215 208 205 197 183 176 159 184 123 335 228 223 211 210 208 202 186 181 193 221 199 267 311 343 355 349 355 356 4
220 216 214 218 220 218 225 231 232 232 236 227 225 210 202 197 187 175 170 161 161 179 176 247 236 226 215 205 213 197 194 192 193 227 233 240 291 178 17 343 353 350 354
221 220 219 220 217 219 223 230 232 232 234 233 227 217 202 195 188 189 189 183 186 193 221 237 233 216 207 208 191 178 186 199 222 238 224 215 291 194 290 350 3 358 359
218 225 220 217 218 221 222 228 229 230 220 213 212 209 202 198 190 185 182 193 193 199 222 215 214 207 200 183 174 168 174 163 169 180 222 181 211 186 169 5 358 2 9
220 226 221 222 226 224 224 226 218 210 207 206 206 196 205 210 199 197 203 214 198 210 213 206 188 176 171 173 170 172 175 169 169 148 216 152 160 177 221 281 3 1 15